When you browse on this site, cookies collect data to enhance your experience and personalize the content and advertising you see.
Visit our Privacy Policy to learn more. By continuing to use the site, you agree to this use of cookies and data.
  • In Czech Republic
  • List of Countries
  • For 7 days
  • Water Temperature
  • Satellite Maps
  • Weather Map
  • Weather Widgets
  • user-avatar
    Login

    Hourly Weather Nicosia

    Today, 17 January, Thursday

    Time Temperature Precipitation Wind Pressure Humidity
    00:00 -1°C° 0 mm 8 mps 744 mmHg 63%
    01:00 -1°C° 0 mm 8 mps 744 mmHg 57%
    02:00 -2°C° 0 mm 7 mps 745 mmHg 52%
    03:00 -2°C° 0 mm 7 mps 745 mmHg 52%
    04:00 -2°C° 0 mm 7 mps 746 mmHg 52%
    05:00 -2°C° 0 mm 7 mps 746 mmHg 52%
    06:00 -1°C° 0 mm 7 mps 747 mmHg 54%
    07:00 -1°C° 0 mm 8 mps 748 mmHg 55%
    08:00 -1°C° 0 mm 8 mps 748 mmHg 57%
    09:00 +2°C° 0 mm 7 mps 749 mmHg 54%
    10:00 +4°C° 0 mm 6 mps 749 mmHg 52%
    11:00 +7°C° 0 mm 6 mps 750 mmHg 50%
    12:00 +8°C° 0 mm 5 mps 750 mmHg 49%
    13:00 +8°C° 0 mm 4 mps 749 mmHg 47%
    14:00 +10°C° 0 mm 3 mps 749 mmHg 46%
    15:00 +9°C° 0 mm 2 mps 750 mmHg 52%
    16:00 +7°C° 0 mm 2 mps 750 mmHg 58%
    17:00 +6°C° 0 mm 2 mps 750 mmHg 64%
    18:00 +4°C° 0 mm 3 mps 751 mmHg 63%
    19:00 +4°C° 0 mm 3 mps 751 mmHg 63%
    20:00 +3°C° 0 mm 4 mps 751 mmHg 63%
    21:00 +3°C° 0 mm 4 mps 751 mmHg 61%
    22:00 +3°C° 0 mm 4 mps 751 mmHg 59%
    23:00 +3°C° 0 mm 4 mps 751 mmHg 57%

    Tomorrow, 18 January, Friday

    Time Temperature Precipitation Wind Pressure Humidity
    00:00 +3°C° 0 mm 4 mps 751 mmHg 57%
    01:00 +3°C° 0 mm 4 mps 752 mmHg 57%
    02:00 +3°C° 0 mm 4 mps 752 mmHg 56%
    03:00 +3°C° 0 mm 4 mps 752 mmHg 56%
    04:00 +3°C° 0 mm 4 mps 751 mmHg 55%
    05:00 +3°C° 0 mm 4 mps 751 mmHg 54%
    06:00 +3°C° 0 mm 4 mps 751 mmHg 53%
    07:00 +4°C° 0 mm 4 mps 752 mmHg 52%
    08:00 +4°C° 0 mm 4 mps 752 mmHg 51%
    09:00 +6°C° 0 mm 4 mps 752 mmHg 48%
    10:00 +9°C° 0 mm 3 mps 752 mmHg 46%
    11:00 +11°C° 0 mm 3 mps 752 mmHg 43%
    12:00 +11°C° 0 mm 3 mps 752 mmHg 48%
    13:00 +11°C° 0 mm 3 mps 752 mmHg 53%
    14:00 +11°C° 0 mm 3 mps 751 mmHg 58%
    15:00 +10°C° 0 mm 3 mps 752 mmHg 68%
    16:00 +8°C° 0 mm 3 mps 752 mmHg 79%
    17:00 +5°C° 0 mm 3 mps 752 mmHg 89%
    18:00 +7°C° 0 mm 3 mps 752 mmHg 91%
    19:00 +7°C° 0 mm 3 mps 753 mmHg 92%
    20:00 +8°C° 0 mm 3 mps 753 mmHg 94%
    21:00 +8°C° 0 mm 3 mps 753 mmHg 94%
    22:00 +8°C° 0 mm 3 mps 753 mmHg 94%
    23:00 +8°C° 0 mm 3 mps 753 mmHg 94%

    Day after tomorrow, 19 January, Saturday

    Time Temperature Precipitation Wind Pressure Humidity
    00:00 +8°C° 0 mm 3 mps 753 mmHg 94%
    01:00 +8°C° 0 mm 3 mps 753 mmHg 94%
    02:00 +8°C° 0 mm 3 mps 753 mmHg 94%
    03:00 +7°C° 0.1 mm 4 mps 753 mmHg 94%
    04:00 +7°C° 0.1 mm 4 mps 753 mmHg 94%
    05:00 +7°C° 0.1 mm 4 mps 753 mmHg 94%
    06:00 +7°C° 0.1 mm 5 mps 753 mmHg 92%
    07:00 +7°C° 0.1 mm 5 mps 753 mmHg 90%
    08:00 +7°C° 0.1 mm 5 mps 753 mmHg 88%
    09:00 +8°C° 0.1 mm 5 mps 753 mmHg 85%
    10:00 +8°C° 0.1 mm 5 mps 753 mmHg 82%
    11:00 +9°C° 0.1 mm 5 mps 753 mmHg 80%
    12:00 +9°C° 0 mm 5 mps 753 mmHg 80%
    13:00 +10°C° 0 mm 4 mps 752 mmHg 81%
    14:00 +10°C° 0 mm 4 mps 752 mmHg 81%
    15:00 +10°C° 0 mm 4 mps 752 mmHg 85%
    16:00 +8°C° 0 mm 4 mps 752 mmHg 88%
    17:00 +8°C° 0 mm 4 mps 752 mmHg 92%
    18:00 +7°C° 0 mm 4 mps 752 mmHg 92%
    19:00 +7°C° 0 mm 4 mps 752 mmHg 93%
    20:00 +7°C° 0 mm 4 mps 753 mmHg 93%
    21:00 +7°C° 0 mm 4 mps 753 mmHg 91%
    22:00 +7°C° 0 mm 4 mps 753 mmHg 89%
    23:00 +7°C° 0 mm 4 mps 753 mmHg 87%

    20 January, Sunday

    Time Temperature Precipitation Wind Pressure Humidity
    00:00 +7°C° 0 mm 4 mps 753 mmHg 85%
    01:00 +7°C° 0 mm 4 mps 753 mmHg 83%
    02:00 +7°C° 0 mm 4 mps 752 mmHg 82%
    03:00 +7°C° 0 mm 4 mps 752 mmHg 80%
    04:00 +7°C° 0 mm 4 mps 752 mmHg 79%
    05:00 +7°C° 0 mm 5 mps 752 mmHg 77%
    06:00 +7°C° 0 mm 5 mps 752 mmHg 77%
    07:00 +7°C° 0 mm 5 mps 752 mmHg 76%
    08:00 +7°C° 0 mm 5 mps 752 mmHg 76%
    09:00 +8°C° 0 mm 5 mps 752 mmHg 74%
    10:00 +8°C° 0 mm 5 mps 752 mmHg 73%
    11:00 +8°C° 0 mm 5 mps 752 mmHg 71%
    12:00 +10°C° 0 mm 4 mps 752 mmHg 73%
    13:00 +10°C° 0 mm 4 mps 751 mmHg 75%
    14:00 +10°C° 0 mm 4 mps 751 mmHg 77%
    15:00 +8°C° 0 mm 4 mps 751 mmHg 79%
    16:00 +8°C° 0 mm 4 mps 751 mmHg 81%
    17:00 +8°C° 0 mm 4 mps 751 mmHg 84%
    18:00 +8°C° 0 mm 4 mps 751 mmHg 84%
    19:00 +8°C° 0 mm 4 mps 751 mmHg 84%
    20:00 +8°C° 0 mm 5 mps 751 mmHg 83%
    21:00 +8°C° 0 mm 4 mps 751 mmHg 83%
    22:00 +8°C° 0 mm 4 mps 751 mmHg 82%
    23:00 +8°C° 0 mm 4 mps 751 mmHg 82%

    21 January, Monday

    Time Temperature Precipitation Wind Pressure Humidity
    00:00 +7°C° 0 mm 4 mps 751 mmHg 81%
    01:00 +7°C° 0 mm 4 mps 751 mmHg 81%
    02:00 +7°C° 0 mm 4 mps 751 mmHg 80%
    03:00 +7°C° 0 mm 4 mps 751 mmHg 80%
    04:00 +7°C° 0 mm 4 mps 751 mmHg 79%
    05:00 +7°C° 0 mm 4 mps 751 mmHg 79%
    06:00 +7°C° 0 mm 4 mps 751 mmHg 77%
    07:00 +7°C° 0 mm 4 mps 751 mmHg 74%
    08:00 +8°C° 0 mm 4 mps 752 mmHg 72%
    09:00 +8°C° 0 mm 4 mps 752 mmHg 71%
    10:00 +10°C° 0 mm 4 mps 752 mmHg 69%
    11:00 +11°C° 0 mm 4 mps 752 mmHg 67%
    12:00 +11°C° 0 mm 4 mps 752 mmHg 68%
    13:00 +12°C° 0 mm 3 mps 751 mmHg 70%
    14:00 +12°C° 0 mm 3 mps 751 mmHg 71%
    15:00 +11°C° 0 mm 3 mps 751 mmHg 77%
    16:00 +10°C° 0 mm 3 mps 751 mmHg 82%
    17:00 +9°C° 0 mm 2 mps 752 mmHg 88%
    18:00 +9°C° 0 mm 3 mps 752 mmHg 89%
    19:00 +9°C° 0 mm 3 mps 752 mmHg 90%
    20:00 +9°C° 0 mm 3 mps 752 mmHg 91%
    21:00 +9°C° 0 mm 3 mps 752 mmHg 90%
    22:00 +8°C° 0 mm 3 mps 752 mmHg 89%
    23:00 +8°C° 0 mm 3 mps 752 mmHg 88%

    22 January, Tuesday

    Time Temperature Precipitation Wind Pressure Humidity
    00:00 +9°C° 0 mm 3 mps 752 mmHg 87%
    01:00 +9°C° 0 mm 3 mps 752 mmHg 86%
    02:00 +9°C° 0 mm 3 mps 752 mmHg 85%
    03:00 +9°C° 0 mm 3 mps 752 mmHg 84%
    04:00 +9°C° 0 mm 3 mps 752 mmHg 84%
    05:00 +8°C° 0 mm 4 mps 751 mmHg 83%
    06:00 +8°C° 0 mm 4 mps 752 mmHg 81%
    07:00 +8°C° 0 mm 4 mps 752 mmHg 79%
    08:00 +8°C° 0 mm 4 mps 752 mmHg 77%
    09:00 +10°C° 0 mm 4 mps 752 mmHg 77%
    10:00 +10°C° 0 mm 4 mps 752 mmHg 77%
    11:00 +10°C° 0 mm 4 mps 752 mmHg 78%
    12:00 +11°C° 0 mm 4 mps 751 mmHg 78%
    13:00 +11°C° 0 mm 4 mps 751 mmHg 79%
    14:00 +12°C° 0 mm 4 mps 751 mmHg 80%
    15:00 +11°C° 0 mm 4 mps 751 mmHg 84%
    16:00 +11°C° 0 mm 4 mps 750 mmHg 89%
    17:00 +10°C° 0 mm 4 mps 750 mmHg 93%
    18:00 +10°C° 0 mm 4 mps 750 mmHg 94%
    19:00 +10°C° 0 mm 4 mps 750 mmHg 95%
    20:00 +10°C° 0 mm 4 mps 750 mmHg 95%
    21:00 +10°C° 0 mm 4 mps 750 mmHg 95%
    22:00 +10°C° 0 mm 4 mps 750 mmHg 95%
    23:00 +10°C° 0 mm 4 mps 750 mmHg 95%
    Show more